This demonstration page uses our WeatherBlox Daily Observations layout. Learn more.

Left ArrowRight Arrow

Hourly Observations for November 4, 2021

Temp ( °F °C ) Dew Point ( °F °C ) Humidity (%) Winds ( mph kmh ) Pressure ( in mb ) Visibility ( mi km ) Precip ( " mm )
12:53 am 00:53 Cloudy 49 9.4 41 5 74 74 ENE 9 15 30.24 1024 10 16 0.00 0.00
1:53 am 01:53 Cloudy 48 8.9 42 5.6 80 80 ENE 8 13 30.23 1024 10 16 0.00 0.00
2:53 am 02:53 Cloudy 47 8.3 42 5.6 83 83 NE 7 11 30.22 1023 10 16 0.00 0.00
3:53 am 03:53 Cloudy with Light Rain 47 8.3 42 5.6 83 83 ENE 9 15 30.20 1023 10 16 0.00 0.00
4:53 am 04:53 Cloudy with Light Rain 46 7.8 42 5.6 86 86 NNE 6 9 30.20 1023 10 16 0.01 0.25
5:53 am 05:53 Cloudy with Light Rain 46 7.8 43 6.1 89 89 NE 7 11 30.20 1023 10 16 0.03 0.76
6:53 am 06:53 Cloudy with Light Rain 46 7.8 43 6.1 89 89 NE 6 9 30.21 1023 10 16 0.02 0.51
7:53 am 07:53 Cloudy with Light Rain 45 7.2 43 6.1 93 93 NNE 7 11 30.22 1023 10 16 0.03 0.76
8:53 am 08:53 Cloudy with Light Rain 46 7.8 43 6.1 89 89 ENE 7 11 30.24 1024 10 16 0.01 0.25
9:53 am 09:53 Cloudy with Light Rain 46 7.8 43 6.1 89 89 ENE 9 15 30.25 1025 10 16 0.02 0.51
10:53 am 10:53 Cloudy with Light Rain 46 7.8 43 6.1 89 89 ENE 9 15 30.27 1025 8 13 0.02 0.51
11:43 am 11:43 Cloudy with Light Rain 47 8.3 44 6.7 90 90 ENE 6 9 30.29 1026 10 16 0.01 0.25
11:53 am 11:53 Cloudy 47 8.3 44 6.7 90 90 ENE 9 15 30.27 1025 10 16 0.01 0.25
12:53 pm 12:53 Cloudy 47 8.3 44 6.7 90 90 ENE 7 11 30.26 1025 7 11 0.00 0.00
1:07 pm 13:07 Cloudy with Mist and Fog 47 8.3 44 6.7 90 90 ENE 8 13 30.27 1025 3 4 0.00 0.00
1:24 pm 13:24 Cloudy with Mist and Fog 46 7.8 44 6.7 93 93 NE 7 11 30.26 1025 3 5 0.00 0.00
1:44 pm 13:44 Cloudy 47 8.3 45 7.2 93 93 ENE 7 11 30.26 1025 8 13 0.00 0.00
1:53 pm 13:53 Cloudy with Mist and Fog 47 8.3 45 7.2 93 93 ENE 7 11 30.24 1024 4 6 0.00 0.00
2:53 pm 14:53 Cloudy 47 8.3 44 6.7 90 90 ENE 9 15 30.22 1024 7 11 0.00 0.00
3:53 pm 15:53 Cloudy 48 8.9 44 6.7 86 86 E 7 11 30.21 1023 10 16 0.00 0.00
4:53 pm 16:53 Cloudy 48 8.9 44 6.7 86 86 NNE 7 11 30.21 1023 10 16 0.00 0.00
5:53 pm 17:53 Cloudy 47 8.3 43 6.1 86 86 ENE 8 13 30.21 1023 10 16 0.00 0.00
6:53 pm 18:53 Cloudy 48 8.9 44 6.7 86 86 NE 6 9 30.22 1023 10 16 0.00 0.00
7:53 pm 19:53 Cloudy 47 8.3 44 6.7 90 90 NE 5 7 30.23 1024 10 16 0.00 0.00
8:53 pm 20:53 Cloudy 47 8.3 44 6.7 90 90 NE 7 11 30.22 1024 10 16 0.00 0.00
9:20 pm 21:20 Cloudy 47 8.3 43 6.1 86 86 ENE 8 13 30.24 1024 10 16 0.00 0.00
9:33 pm 21:33 Cloudy 47 8.3 43 6.1 86 86 ENE 7 11 30.24 1024 10 16 0.00 0.00
9:46 pm 21:46 Cloudy 47 8.3 43 6.1 86 86 ENE 6 9 30.24 1024 10 16 0.00 0.00
9:53 pm 21:53 Cloudy 47 8.3 43 6.1 86 86 NE 8 13 30.22 1023 10 16 0.00 0.00
10:53 pm 22:53 Cloudy 47 8.3 42 5.6 83 83 NE 9 15 30.23 1024 10 16 0.00 0.00
11:53 pm 23:53 Cloudy 47 8.3 42 5.6 83 83 ENE 7 11 30.23 1024 10 16 0.00 0.00

Powered by AerisWeather